EW6078 Weather Reports


time (UTC)temp
C
wind
direction
speed
KPH
gust
KPH
rain 1hr
cm
rain 24hr
cm
rain mn
cm
humidity
%
barometer
mb
20260506081011 6 310 0.0 0.0 0.00 0.00 0.00 78 1018.9
20260506080508 6 310 0.0 0.0 0.00 0.00 0.00 78 1018.8
20260506073512 7 310 0.0 0.0 0.00 0.00 0.00 77 1018.4
20260506073028 7 310 0.0 0.0 0.00 0.00 0.00 77 1018.4
20260506072509 7 310 0.0 0.0 0.00 0.00 0.00 77 1018.3
20260506072010 7 310 0.0 3.2 0.00 0.00 0.00 75 1018.3
20260506071515 7 310 0.0 3.2 0.00 0.00 0.00 75 1018.2
20260506071007 7 310 0.0 3.2 0.00 0.00 0.00 74 1018.2
20260506070503 8 310 0.0 3.2 0.00 0.00 0.00 74 1018.2
20260506062508 9 310 0.0 3.2 0.00 0.00 0.00 71 1017.9
20260506062011 9 310 0.0 3.2 0.00 0.00 0.00 70 1017.9
20260506061526 10 310 0.0 3.2 0.00 0.00 0.00 70 1017.9
20260506061011 10 310 0.0 0.0 0.00 0.00 0.00 69 1017.9
20260506060508 10 310 0.0 0.0 0.00 0.00 0.00 68 1017.7
20260506051009 12 310 0.0 0.0 0.00 0.00 0.00 62 1017.5
20260506050507 12 310 0.0 0.0 0.00 0.00 0.00 61 1017.4
20260506045012 13 310 0.0 0.0 0.00 0.00 0.00 59 1017.1
20260506044517 13 310 0.0 0.0 0.00 0.00 0.00 57 1017.2
20260506044008 13 310 0.0 0.0 0.00 0.00 0.00 56 1017.2
20260506043508 14 310 0.0 0.0 0.00 0.00 0.00 56 1017.2
20260506043022 14 310 0.0 0.0 0.00 0.00 0.00 54 1017.2
20260506042506 14 310 0.0 0.0 0.00 0.00 0.00 54 1017.2
20260506042010 15 310 0.0 0.0 0.00 0.00 0.00 53 1017.1
20260506041525 15 310 0.0 0.0 0.00 0.00 0.00 51 1017.1
20260506041007 15 310 0.0 0.0 0.00 0.00 0.00 50 1017.0
20260506040511 15 315 0.0 0.0 0.00 0.00 0.00 49 1016.9
20260506040026 15 283 0.0 0.0 0.00 0.00 0.00 46 1016.8
20260506035508 16 283 0.0 0.0 0.00 0.00 0.00 44 1016.8
20260506035012 16 283 0.0 0.0 0.00 0.00 0.00 42 1016.7
20260506034528 16 295 0.0 0.0 0.00 0.00 0.00 39 1016.6
20260506034010 16 295 0.0 0.0 0.00 0.00 0.00 38 1016.5
20260506033507 17 295 0.0 0.0 0.00 0.00 0.00 38 1016.4
20260506033021 17 300 0.0 0.0 0.00 0.00 0.00 37 1016.4
20260506032506 17 334 0.0 0.0 0.00 0.00 0.00 36 1016.4
20260506032011 17 315 0.0 0.0 0.00 0.00 0.00 35 1016.3
20260506031523 18 315 0.0 0.0 0.00 0.00 0.00 35 1016.2
20260506031008 18 302 0.0 0.0 0.00 0.00 0.00 34 1016.2
20260506030502 18 352 0.0 0.0 0.00 0.00 0.00 34 1016.1
20260506030006 18 341 0.0 0.0 0.00 0.00 0.00 35 1016.1
20260506025508 18 347 0.0 0.0 0.00 0.00 0.00 35 1016.0
20260506025004 19 309 0.0 0.0 0.00 0.00 0.00 36 1015.9
20260506024510 19 9 0.0 0.0 0.00 0.00 0.00 37 1015.8
20260506024004 19 321 0.0 0.0 0.00 0.00 0.00 40 1015.8
20260506023506 19 320 0.0 0.0 0.00 0.00 0.00 39 1015.8
20260506023016 19 319 0.0 0.0 0.00 0.00 0.00 38 1015.8
20260506022508 19 321 0.0 0.0 0.00 0.00 0.00 39 1015.8
20260506022006 20 352 0.0 0.0 0.00 0.00 0.00 39 1015.8
20260506021522 20 360 0.0 0.0 0.00 0.00 0.00 39 1015.7
20260506021008 20 338 0.0 0.0 0.00 0.00 0.00 38 1015.6
20260506020507 20 9 0.0 0.0 0.00 0.00 0.00 39 1015.6
20260506020004 20 327 0.0 0.0 0.00 0.00 0.00 38 1015.5
20260506015505 20 327 0.0 0.0 0.00 0.00 0.00 38 1015.5
20260506015005 20 314 0.0 0.0 0.00 0.00 0.00 39 1015.6
20260506014509 20 26 0.0 0.0 0.00 0.00 0.00 40 1015.5
20260506014004 20 9 0.0 0.0 0.00 0.00 0.00 41 1015.4
20260506013507 20 339 0.0 0.0 0.00 0.00 0.00 40 1015.2
20260506013016 20 328 0.0 0.0 0.00 0.00 0.00 40 1015.3
20260506012504 20 346 0.0 0.0 0.00 0.00 0.00 40 1015.4
20260506012004 20 297 0.0 0.0 0.00 0.00 0.00 41 1015.3
20260506011525 20 327 0.0 0.0 0.00 0.00 0.00 40 1015.3
20260506011007 20 323 0.0 0.0 0.00 0.00 0.00 39 1015.2
20260506010507 20 351 0.0 0.0 0.00 0.00 0.00 40 1015.1
20260506010025 20 329 0.0 0.0 0.00 0.00 0.00 39 1015.1
20260506005512 21 21 0.0 0.0 0.00 0.00 0.00 38 1015.1
20260506005002 21 327 0.0 0.0 0.00 0.00 0.00 36 1015.1
20260506004519 21 170 0.0 0.0 0.00 0.00 0.00 36 1014.8
20260506004004 21 336 0.0 0.0 0.00 0.00 0.00 35 1014.9
20260506003504 22 322 0.0 0.0 0.00 0.00 0.00 35 1014.8
20260506003012 22 348 0.0 0.0 0.00 0.00 0.00 34 1014.7
20260506002507 22 342 0.0 0.0 0.00 0.00 0.00 34 1014.5
20260506002004 22 281 0.0 0.0 0.00 0.00 0.00 35 1014.5
20260506001516 22 53 0.0 0.0 0.00 0.00 0.00 37 1014.5
20260506001007 22 352 0.0 0.0 0.00 0.00 0.00 35 1014.5
20260506000507 22 340 0.0 0.0 0.00 0.00 0.00 35 1014.5
20260506000034 22 282 0.0 0.0 0.00 0.00 0.00 33 1014.5
20260505235506 22 118 0.0 0.0 0.00 0.00 0.00 33 1014.5
20260505235007 23 9 0.0 0.0 0.00 0.00 0.00 33 1014.4
20260505234526 22 351 0.0 0.0 0.00 0.00 0.00 35 1014.5
20260505234008 22 342 0.0 0.0 0.00 0.00 0.00 33 1014.6
20260505233505 22 325 0.0 0.0 0.00 0.00 0.00 33 1014.5
20260505233007 22 317 0.0 0.0 0.00 0.00 0.00 33 1014.4
20260505232504 22 34 0.0 0.0 0.00 0.00 0.00 35 1014.5
20260505232004 22 337 0.0 0.0 0.00 0.00 0.00 33 1014.5
20260505231516 23 22 0.0 0.0 0.00 0.00 0.00 32 1014.5
20260505231003 23 21 0.0 0.0 0.00 0.00 0.00 31 1014.4
20260505230506 23 324 0.0 0.0 0.00 0.00 0.00 34 1014.4
20260505230032 22 360 0.0 0.0 0.00 0.00 0.00 34 1014.5
20260505225508 22 351 0.0 0.0 0.00 0.00 0.00 33 1014.5
20260505225009 22 114 0.0 0.0 0.00 0.00 0.00 34 1014.5
20260505224524 22 334 0.0 0.0 0.00 0.00 0.00 32 1014.5
20260505224009 23 19 0.0 0.0 0.00 0.00 0.00 32 1014.6
20260505223509 23 331 0.0 0.0 0.00 0.00 0.00 31 1014.7
20260505223034 24 351 0.0 0.0 0.00 0.00 0.00 30 1014.6
20260505222511 24 31 0.0 0.0 0.00 0.00 0.00 32 1014.6
20260505222005 24 347 0.0 0.0 0.00 0.00 0.00 30 1014.7
20260505221512 23 346 0.0 0.0 0.00 0.00 0.00 30 1014.7
20260505221004 23 288 0.0 0.0 0.00 0.00 0.00 31 1014.6
20260505220503 23 289 0.0 0.0 0.00 0.00 0.00 30 1014.7
20260505220018 23 344 0.0 0.0 0.00 0.00 0.00 32 1014.7
20260505215506 24 315 0.0 0.0 0.00 0.00 0.00 32 1014.7
20260505215006 24 348 0.0 0.0 0.00 0.00 0.00 31 1014.7
20260505214524 25 286 0.0 0.0 0.00 0.00 0.00 30 1014.6
20260505214011 25 158 0.0 0.0 0.00 0.00 0.00 31 1014.6
20260505213507 25 13 0.0 0.0 0.00 0.00 0.00 31 1014.7
20260505213028 25 19 0.0 0.0 0.00 0.00 0.00 32 1014.6
20260505212509 25 351 0.0 0.0 0.00 0.00 0.00 32 1014.7
20260505212013 25 351 0.0 0.0 0.00 0.00 0.00 30 1014.7
20260505211536 25 103 0.0 0.0 0.00 0.00 0.00 31 1014.7
20260505211005 25 300 0.0 0.0 0.00 0.00 0.00 30 1014.5
20260505210504 25 306 0.0 0.0 0.00 0.00 0.00 29 1014.5
20260505210017 25 351 0.0 0.0 0.00 0.00 0.00 30 1014.6
20260505205508 24 11 0.0 0.0 0.00 0.00 0.00 32 1014.7
20260505205006 24 63 0.0 0.0 0.00 0.00 0.00 29 1014.7
20260505204521 24 34 0.0 0.0 0.00 0.00 0.00 30 1014.7
20260505204008 24 167 0.0 0.0 0.00 0.00 0.00 28 1014.6
20260505203508 25 235 0.0 0.0 0.00 0.00 0.00 30 1014.7
20260505203023 24 333 0.0 0.0 0.00 0.00 0.00 33 1014.8
20260505202508 24 24 0.0 0.0 0.00 0.00 0.00 28 1014.8
20260505202012 24 327 0.0 0.0 0.00 0.00 0.00 29 1014.7
20260505201531 24 33 0.0 0.0 0.00 0.00 0.00 30 1014.9
20260505201011 24 313 0.0 0.0 0.00 0.00 0.00 30 1014.9
20260505200508 24 94 0.0 0.0 0.00 0.00 0.00 31 1015.0
20260505200028 23 349 0.0 0.0 0.00 0.00 0.00 35 1014.9
20260505195504 24 352 0.0 0.0 0.00 0.00 0.00 31 1015.0
20260505195005 24 315 0.0 0.0 0.00 0.00 0.00 33 1014.9
20260505194520 23 205 0.0 0.0 0.00 0.00 0.00 37 1014.7
20260505194007 23 137 0.0 0.0 0.00 0.00 0.00 34 1014.9
20260505193509 23 57 0.0 0.0 0.00 0.00 0.00 33 1014.9
20260505193023 23 323 0.0 0.0 0.00 0.00 0.00 32 1014.8
20260505192507 23 20 0.0 0.0 0.00 0.00 0.00 32 1014.8
20260505192007 23 232 0.0 0.0 0.00 0.00 0.00 34 1014.7
20260505191533 23 12 0.0 0.0 0.00 0.00 0.00 35 1014.9
20260505191008 23 341 0.0 0.0 0.00 0.00 0.00 34 1014.9
20260505190510 23 360 0.0 0.0 0.00 0.00 0.00 35 1014.8
20260505190028 22 9 0.0 0.0 0.00 0.00 0.00 37 1014.8
20260505185513 22 9 0.0 0.0 0.00 0.00 0.00 35 1014.8
20260505185008 22 9 0.0 0.0 0.00 0.00 0.00 37 1014.9
20260505184537 22 342 0.0 0.0 0.00 0.00 0.00 36 1014.9
20260505184007 22 315 0.0 0.0 0.00 0.00 0.00 37 1014.8
20260505183505 22 17 0.0 0.0 0.00 0.00 0.00 38 1014.8
20260505183023 21 300 0.0 0.0 0.00 0.00 0.00 37 1015.0
20260505182507 21 336 0.0 0.0 0.00 0.00 0.00 39 1015.0
20260505182008 21 360 0.0 0.0 0.00 0.00 0.00 39 1014.8
20260505181527 21 247 0.0 0.0 0.00 0.00 0.00 39 1014.9
20260505181010 21 328 0.0 0.0 0.00 0.00 0.00 40 1014.9
20260505180508 20 337 0.0 0.0 0.00 0.00 0.00 41 1014.9
20260505180026 20 9 0.0 0.0 0.00 0.00 0.00 40 1015.0
20260505175503 20 18 0.0 0.0 0.00 0.00 0.00 39 1014.9
20260505175003 20 76 0.0 0.0 0.00 0.00 0.00 40 1015.0
20260505174518 19 352 0.0 0.0 0.00 0.00 0.00 42 1015.0
20260505174010 18 300 0.0 0.0 0.00 0.00 0.00 43 1015.0
20260505173507 18 88 0.0 0.0 0.00 0.00 0.00 41 1015.1
20260505173019 18 351 0.0 0.0 0.00 0.00 0.00 42 1015.1
20260505172510 18 28 0.0 0.0 0.00 0.00 0.00 43 1015.1
20260505172008 17 282 0.0 0.0 0.00 0.00 0.00 43 1015.1
20260505171532 17 349 0.0 14.5 0.00 0.00 0.00 42 1015.1
20260505171007 17 202 0.0 14.5 0.00 0.00 0.00 44 1015.1
20260505170508 17 23 3.2 4.8 0.00 0.00 0.00 44 1015.1
20260505170028 16 135 1.6 4.8 0.00 0.00 0.00 46 1015.1
20260505165507 16 312 3.2 4.8 0.00 0.00 0.00 50 1015.1
20260505165007 16 110 1.6 4.8 0.00 0.00 0.00 49 1015.1
20260505164512 16 26 1.6 4.8 0.00 0.00 0.00 54 1015.1
20260505164003 15 291 1.6 3.2 0.00 0.00 0.00 56 1015.1
20260505163506 15 275 1.6 3.2 0.00 0.00 0.00 58 1015.1
20260505163017 15 17 0.0 3.2 0.00 0.00 0.00 58 1015.2
20260505162507 14 224 1.6 3.2 0.00 0.00 0.00 62 1015.2
20260505162009 13 224 1.6 3.2 0.00 0.00 0.00 62 1015.2
20260505161523 13 205 1.6 4.8 0.00 0.00 0.00 64 1015.2
20260505161007 12 221 1.6 4.8 0.00 0.00 0.00 67 1015.2
20260505160511 12 105 0.0 3.2 0.00 0.00 0.00 69 1015.2
20260505153031 7 27 0.0 3.2 0.00 0.00 0.00 86 1015.3
20260505152507 7 44 1.6 4.8 0.00 0.00 0.00 88 1015.4
20260505152005 6 207 0.0 4.8 0.00 0.00 0.00 94 1015.3
20260505151521 6 167 0.0 4.8 0.00 0.00 0.00 94 1015.2
20260505151005 5 227 0.0 3.2 0.00 0.00 0.00 94 1015.2
20260505150503 5 227 0.0 3.2 0.00 0.00 0.00 94 1015.2
20260505140507 0 227 0.0 0.0 0.00 0.00 0.00 92 1014.8
20260505125011 0 227 0.0 0.0 0.00 0.00 0.00 89 1014.3
20260505124523 0 227 0.0 3.2 0.00 0.00 0.00 89 1014.3
20260505124003 0 227 0.0 3.2 0.00 0.00 0.00 89 1014.3
20260505123506 0 227 0.0 0.0 0.00 0.00 0.00 89 1014.3
20260505123006 0 227 0.0 0.0 0.00 0.00 0.00 89 1014.2
20260505122503 0 227 0.0 0.0 0.00 0.00 0.00 89 1014.3
20260505122008 0 227 0.0 3.2 0.00 0.00 0.00 89 1014.3
20260505121512 0 227 0.0 3.2 0.00 0.00 0.00 89 1014.2
20260505121004 0 227 0.0 0.0 0.00 0.00 0.00 89 1014.2
20260505120506 0 227 0.0 0.0 0.00 0.00 0.00 89 1014.1
20260505120016 0 227 0.0 3.2 0.00 0.00 0.00 89 1014.1
20260505115504 0 227 0.0 3.2 0.00 0.00 0.00 89 1014.0
20260505115007 0 227 0.0 3.2 0.00 0.00 0.00 88 1013.9
20260505114523 0 227 0.0 3.2 0.00 0.00 0.00 88 1013.8
20260505114006 0 227 0.0 0.0 0.00 0.00 0.00 88 1013.8
20260505113508 1 227 0.0 0.0 0.00 0.00 0.00 88 1013.8
20260505113026 1 227 0.0 0.0 0.00 0.00 0.00 88 1013.8
20260505112512 1 227 0.0 0.0 0.00 0.00 0.00 88 1013.9
20260505112003 1 227 0.0 0.0 0.00 0.00 0.00 88 1013.9
20260505111509 1 227 0.0 0.0 0.00 0.00 0.00 88 1013.9
20260505111004 1 227 0.0 0.0 0.00 0.00 0.00 88 1013.9
20260505110502 1 227 0.0 0.0 0.00 0.00 0.00 89 1013.8
20260505102007 2 227 0.0 3.2 0.00 0.00 0.00 87 1013.7
20260505101524 2 227 0.0 3.2 0.00 0.00 0.00 88 1013.7
20260505101009 2 227 0.0 0.0 0.00 0.00 0.00 87 1013.8
20260505100503 2 227 0.0 0.0 0.00 0.00 0.00 87 1013.7
20260505100013 2 227 0.0 0.0 0.00 0.00 0.00 87 1013.7
20260505095507 2 227 0.0 0.0 0.00 0.00 0.00 87 1013.7
20260505095007 2 227 0.0 0.0 0.00 0.00 0.00 87 1013.8
20260505094515 2 227 0.0 3.2 0.00 0.00 0.00 87 1013.7
20260505094006 3 227 0.0 3.2 0.00 0.00 0.00 87 1013.7
20260505093505 3 227 0.0 3.2 0.00 0.00 0.00 87 1013.8
20260505093022 3 227 0.0 3.2 0.00 0.00 0.00 86 1013.8
20260505092508 3 227 0.0 3.2 0.00 0.00 0.00 86 1013.8
20260505092010 3 227 0.0 3.2 0.00 0.00 0.00 86 1013.8
20260505091526 3 227 0.0 3.2 0.00 0.00 0.00 85 1013.8
20260505091007 3 227 0.0 3.2 0.00 0.00 0.00 85 1013.7
20260505090507 3 227 0.0 3.2 0.00 0.00 0.00 86 1013.8
20260505090027 3 227 0.0 3.2 0.00 0.00 0.00 85 1013.8
20260505085507 3 227 0.0 3.2 0.00 0.00 0.00 85 1013.8
20260505085003 4 227 0.0 3.2 0.00 0.00 0.00 84 1013.8
20260505084512 4 227 0.0 3.2 0.00 0.00 0.00 85 1013.8
20260505084002 4 227 0.0 3.2 0.00 0.00 0.00 84 1013.8
20260505083503 4 227 0.0 3.2 0.00 0.00 0.00 84 1013.8
20260505083015 5 227 0.0 3.2 0.00 0.00 0.00 84 1013.9
20260505082510 5 227 0.0 0.0 0.00 0.00 0.00 84 1014.0
20260505082006 5 227 0.0 0.0 0.00 0.00 0.00 84 1014.0
20260505081525 5 227 0.0 1.6 0.00 0.00 0.00 84 1014.1